,,,PA_Meas_PMT16A,,PR_Meas_QMR101_102,,RH_Meas_QMH101,,SR_Meas_QMS101,,TA_Meas_QMH101,,GenWind,,GenWind,
date,time,status,PA,status,PR,status,RH,status,SR,status,TA,status,DirAvg,status,SpdAvg,
2011-08-22, 00:00:04,VALID,1005.15,VALID,0,INVALID,163.662,VALID,0,VALID,25.4149,VALID,69,VALID,0,
2011-08-22, 00:01:04,VALID,1005.14,VALID,0,INVALID,163.662,VALID,0,VALID,25.4363,VALID,50,VALID,0,
2011-08-22, 00:02:04,VALID,1005.15,VALID,0,INVALID,163.655,VALID,0,VALID,25.4169,VALID,34,VALID,0,
2011-08-22, 00:03:04,VALID,1005.14,VALID,0,INVALID,163.647,VALID,0,VALID,25.376,VALID,64,VALID,0,
2011-08-22, 00:04:04,VALID,1005.1,VALID,0,INVALID,163.662,VALID,0,VALID,25.376,VALID,34,VALID,0,
2011-08-22, 00:05:04,VALID,1005.09,VALID,0,INVALID,163.662,VALID,0,VALID,25.376,VALID,44,VALID,0,
2011-08-22, 00:06:04,VALID,1005.08,VALID,0,INVALID,163.662,VALID,0,VALID,25.3565,VALID,26,VALID,0,
2011-08-22, 00:07:04,VALID,1005.07,VALID,0,INVALID,163.647,VALID,0,VALID,25.3565,VALID,25,VALID,0,
2011-08-22, 00:08:04,VALID,1005.03,VALID,0,INVALID,163.655,VALID,0,VALID,25.337,VALID,62,VALID,0,
2011-08-22, 00:09:04,VALID,1005.01,VALID,0,INVALID,163.647,VALID,0,VALID,25.3779,VALID,25,VALID,0,
2011-08-22, 00:10:04,VALID,1005,VALID,0,INVALID,163.617,VALID,0,VALID,25.3565,VALID,20,VALID,0,
2011-08-22, 00:11:04,VALID,1004.96,VALID,0,INVALID,163.639,VALID,0,VALID,25.3565,VALID,37,VALID,0,
2011-08-22, 00:12:04,VALID,1004.98,VALID,0,INVALID,163.678,VALID,0,VALID,25.337,VALID,39,VALID,0,
2011-08-22, 00:13:04,VALID,1004.99,VALID,0,INVALID,163.647,VALID,0,VALID,25.337,VALID,24,VALID,0,
2011-08-22, 00:14:04,VALID,1004.98,VALID,0,INVALID,163.662,VALID,0,VALID,25.339,VALID,34,VALID,0,
2011-08-22, 00:15:04,VALID,1004.96,VALID,0,INVALID,163.67,VALID,0,VALID,25.3565,VALID,33,VALID,0,
2011-08-22, 00:16:04,VALID,1004.99,VALID,0,INVALID,163.67,VALID,0,VALID,25.3565,VALID,73,VALID,0,
2011-08-22, 00:17:04,VALID,1004.99,VALID,0,INVALID,163.662,VALID,0,VALID,25.376,VALID,49,VALID,0,
2011-08-22, 00:18:04,VALID,1004.98,VALID,0,INVALID,163.655,VALID,0,VALID,25.376,VALID,45,VALID,0,
2011-08-22, 00:19:04,VALID,1004.99,VALID,0,INVALID,163.67,VALID,0,VALID,25.376,VALID,40,VALID,0,
2011-08-22, 00:20:04,VALID,1004.96,VALID,0,INVALID,163.647,VALID,0,VALID,25.376,VALID,27,VALID,0,
2011-08-22, 00:21:04,VALID,1004.95,VALID,0,INVALID,163.67,VALID,0,VALID,25.3565,VALID,24,VALID,0,
2011-08-22, 00:22:04,VALID,1004.96,VALID,0,INVALID,163.647,VALID,0,VALID,25.3565,VALID,31,VALID,0,
2011-08-22, 00:23:04,VALID,1004.94,VALID,0,INVALID,163.647,VALID,0,VALID,25.3779,VALID,26,VALID,0,
2011-08-22, 00:24:04,VALID,1004.92,VALID,0,INVALID,163.632,VALID,0,VALID,25.3565,VALID,60,VALID,0,
2011-08-22, 00:25:04,VALID,1004.93,VALID,0,INVALID,163.655,VALID,0,VALID,25.337,VALID,78,VALID,0,
2011-08-22, 00:26:04,VALID,1004.91,VALID,0,INVALID,163.647,VALID,0,VALID,25.3584,VALID,63,VALID,0,
2011-08-22, 00:27:04,VALID,1004.92,VALID,0,INVALID,163.655,VALID,0,VALID,25.3565,VALID,70,VALID,0,
2011-08-22, 00:28:04,VALID,1004.9,VALID,0,INVALID,163.655,VALID,0,VALID,25.3955,VALID,73,VALID,0,
2011-08-22, 00:29:04,VALID,1004.93,VALID,0,INVALID,163.632,VALID,0,VALID,25.3955,VALID,85,VALID,0,
2011-08-22, 00:30:04,VALID,1004.91,VALID,0,INVALID,163.632,VALID,0,VALID,25.4149,VALID,49,VALID,0,
2011-08-22, 00:31:04,VALID,1004.91,VALID,0,INVALID,163.655,VALID,0,VALID,25.4363,VALID,57,VALID,0,
2011-08-22, 00:32:04,VALID,1004.9,VALID,0,INVALID,163.632,VALID,0,VALID,25.4169,VALID,33,VALID,0,
2011-08-22, 00:33:04,VALID,1004.88,VALID,0,INVALID,163.662,VALID,0,VALID,25.376,VALID,31,VALID,0,
2011-08-22, 00:34:04,VALID,1004.83,VALID,0,INVALID,163.662,VALID,0.100563,VALID,25.376,VALID,43,VALID,0,
2011-08-22, 00:35:04,VALID,1004.84,VALID,0,INVALID,163.647,VALID,0,VALID,25.3974,VALID,21,VALID,0,
2011-08-22, 00:36:04,VALID,1004.79,VALID,0,INVALID,163.639,VALID,0,VALID,25.3546,VALID,39,VALID,0,
2011-08-22, 00:37:04,VALID,1004.78,VALID,0,INVALID,163.655,VALID,0.100563,VALID,25.376,VALID,33,VALID,0,
2011-08-22, 00:38:04,VALID,1004.76,VALID,0,INVALID,163.639,VALID,0,VALID,25.376,VALID,10,VALID,0,
2011-08-22, 00:39:04,VALID,1004.77,VALID,0,INVALID,163.678,VALID,0,VALID,25.3779,VALID,32,VALID,0,
2011-08-22, 00:40:04,VALID,1004.71,VALID,0,INVALID,163.655,VALID,0,VALID,25.3176,VALID,62,VALID,0,
2011-08-22, 00:41:04,VALID,1004.69,VALID,0,INVALID,163.662,VALID,0,VALID,25.2981,VALID,35,VALID,0,
2011-08-22, 00:42:04,VALID,1004.67,VALID,0,INVALID,163.655,VALID,0,VALID,25.3176,VALID,32,VALID,0,
2011-08-22, 00:43:04,VALID,1004.64,VALID,0,INVALID,163.662,VALID,0.100563,VALID,25.3565,VALID,30,VALID,0,
2011-08-22, 00:44:04,VALID,1004.6,VALID,0,INVALID,163.647,VALID,0,VALID,25.4149,VALID,21,VALID,0,
2011-08-22, 00:45:04,VALID,1004.58,VALID,0,INVALID,163.632,VALID,0,VALID,25.4948,VALID,66,VALID,0,
2011-08-22, 00:46:04,VALID,1004.57,VALID,0,INVALID,163.632,VALID,0,VALID,25.5318,VALID,29,VALID,0,
2011-08-22, 00:47:04,VALID,1004.57,VALID,0,INVALID,163.632,VALID,0,VALID,25.4928,VALID,50,VALID,0,
2011-08-22, 00:48:04,VALID,1004.56,VALID,0,INVALID,163.632,VALID,0,VALID,25.5318,VALID,27,VALID,0,
2011-08-22, 00:49:04,VALID,1004.55,VALID,0,INVALID,163.632,VALID,0,VALID,25.5727,VALID,48,VALID,0,
2011-08-22, 00:50:04,VALID,1004.56,VALID,0,INVALID,163.655,VALID,0,VALID,25.5318,VALID,18,VALID,0,
2011-08-22, 00:51:04,VALID,1004.55,VALID,0,INVALID,163.655,VALID,0,VALID,25.5337,VALID,36,VALID,0,
2011-08-22, 00:52:04,VALID,1004.57,VALID,0,INVALID,163.632,VALID,0,VALID,25.5318,VALID,32,VALID,0,
2011-08-22, 00:53:04,VALID,1004.61,VALID,0,INVALID,163.632,VALID,0,VALID,25.5318,VALID,33,VALID,0,
2011-08-22, 00:54:04,VALID,1004.57,VALID,0,INVALID,163.617,VALID,0,VALID,25.5513,VALID,22,VALID,0,
2011-08-22, 00:55:04,VALID,1004.58,VALID,0,INVALID,163.647,VALID,0,VALID,25.5513,VALID,32,VALID,0,
2011-08-22, 00:56:04,VALID,1004.61,VALID,0,INVALID,163.639,VALID,0,VALID,25.5318,VALID,9,VALID,0,
2011-08-22, 00:57:04,VALID,1004.57,VALID,0,INVALID,163.647,VALID,0,VALID,25.5532,VALID,17,VALID,0,
2011-08-22, 00:58:04,VALID,1004.56,VALID,0,INVALID,163.647,VALID,0,VALID,25.5337,VALID,31,VALID,0,
2011-08-22, 00:59:04,VALID,1004.58,VALID,0,INVALID,163.647,VALID,0,VALID,25.5123,VALID,36,VALID,0,
2011-08-22, 01:00:04,VALID,1004.57,VALID,0,INVALID,163.655,VALID,0,VALID,25.5123,VALID,43,VALID,0,
2011-08-22, 01:01:04,VALID,1004.56,VALID,0,INVALID,163.647,VALID,0,VALID,25.5123,VALID,37,VALID,0,
2011-08-22, 01:02:04,VALID,1004.58,VALID,0,INVALID,163.617,VALID,0,VALID,25.5532,VALID,24,VALID,0,
2011-08-22, 01:03:04,VALID,1004.59,VALID,0,INVALID,163.639,VALID,0,VALID,25.5123,VALID,42,VALID,0,
2011-08-22, 01:04:04,VALID,1004.59,VALID,0,INVALID,163.632,VALID,0,VALID,25.5142,VALID,23,VALID,0,
2011-08-22, 01:05:04,VALID,1004.57,VALID,0,INVALID,163.647,VALID,0,VALID,25.5123,VALID,67,VALID,0,
2011-08-22, 01:06:04,VALID,1004.57,VALID,0,INVALID,163.639,VALID,0.100563,VALID,25.5142,VALID,25,VALID,0,
2011-08-22, 01:07:04,VALID,1004.55,VALID,0,INVALID,163.647,VALID,0,VALID,25.4325,VALID,43,VALID,0,
2011-08-22, 01:08:04,VALID,1004.55,VALID,0,INVALID,163.639,VALID,0,VALID,25.4344,VALID,22,VALID,0,
2011-08-22, 01:09:04,VALID,1004.55,VALID,0,INVALID,163.639,VALID,0,VALID,25.413,VALID,28,VALID,0,
2011-08-22, 01:10:04,VALID,1004.51,VALID,0,INVALID,163.639,VALID,0,VALID,25.4149,VALID,31,VALID,0,
2011-08-22, 01:11:04,VALID,1004.49,VALID,0,INVALID,163.639,VALID,0,VALID,25.4753,VALID,18,VALID,0,
2011-08-22, 01:12:04,VALID,1004.47,VALID,0,INVALID,163.624,VALID,0,VALID,25.4928,VALID,94,VALID,0,
2011-08-22, 01:13:04,VALID,1004.46,VALID,0,INVALID,163.624,VALID,0,VALID,25.4928,VALID,26,VALID,0,
2011-08-22, 01:14:04,VALID,1004.43,VALID,0,INVALID,163.617,VALID,0,VALID,25.5337,VALID,35,VALID,0,
2011-08-22, 01:15:04,VALID,1004.42,VALID,0,INVALID,163.639,VALID,0,VALID,25.5123,VALID,23,VALID,0,
2011-08-22, 01:16:04,VALID,1004.42,VALID,0,INVALID,163.624,VALID,0,VALID,25.5123,VALID,31,VALID,0,
2011-08-22, 01:17:04,VALID,1004.4,VALID,0,INVALID,163.67,VALID,0,VALID,25.5123,VALID,19,VALID,0,
2011-08-22, 01:18:04,VALID,1004.39,VALID,0,INVALID,163.639,VALID,0,VALID,25.4734,VALID,29,VALID,0,
2011-08-22, 01:19:04,VALID,1004.38,VALID,0,INVALID,163.632,VALID,0.100563,VALID,25.4753,VALID,33,VALID,0,
2011-08-22, 01:20:04,VALID,1004.39,VALID,0,INVALID,163.655,VALID,0,VALID,25.4753,VALID,38,VALID,0,
2011-08-22, 01:21:04,VALID,1004.39,VALID,0,INVALID,163.662,VALID,0.100563,VALID,25.4928,VALID,67,VALID,0,
2011-08-22, 01:22:04,VALID,1004.36,VALID,0,INVALID,163.632,VALID,0,VALID,25.5123,VALID,17,VALID,0,
2011-08-22, 01:23:04,VALID,1004.36,VALID,0,INVALID,163.624,VALID,0,VALID,25.5513,VALID,26,VALID,0,
2011-08-22, 01:24:04,VALID,1004.38,VALID,0,INVALID,163.662,VALID,0,VALID,25.5318,VALID,52,VALID,0,
2011-08-22, 01:25:04,VALID,1004.34,VALID,0,INVALID,163.624,VALID,0,VALID,25.5123,VALID,16,VALID,0,
2011-08-22, 01:26:04,VALID,1004.27,VALID,0,INVALID,163.647,VALID,0.100563,VALID,25.5318,VALID,80,VALID,0,
2011-08-22, 01:27:04,VALID,1004.3,VALID,0,INVALID,163.655,VALID,0,VALID,25.5123,VALID,12,VALID,0,
2011-08-22, 01:28:04,VALID,1004.28,VALID,0,INVALID,163.647,VALID,0,VALID,25.5318,VALID,32,VALID,0,
2011-08-22, 01:29:04,VALID,1004.25,VALID,0,INVALID,163.647,VALID,0,VALID,25.5104,VALID,39,VALID,0,
2011-08-22, 01:30:04,VALID,1004.25,VALID,0,INVALID,163.624,VALID,0,VALID,25.5727,VALID,28,VALID,0,
2011-08-22, 01:31:04,VALID,1004.26,VALID,0,INVALID,163.624,VALID,0,VALID,25.5727,VALID,20,VALID,0,
2011-08-22, 01:32:04,VALID,1004.25,VALID,0,INVALID,163.655,VALID,0,VALID,25.5727,VALID,33,VALID,0,
2011-08-22, 01:33:04,VALID,1004.27,VALID,0,INVALID,163.647,VALID,0.100563,VALID,25.5318,VALID,7,VALID,0,
2011-08-22, 01:34:04,VALID,1004.26,VALID,0,INVALID,163.639,VALID,0,VALID,25.5727,VALID,18,VALID,0,
2011-08-22, 01:35:04,VALID,1004.29,VALID,0,INVALID,163.655,VALID,0,VALID,25.5532,VALID,29,VALID,0,
2011-08-22, 01:36:04,VALID,1004.29,VALID,0,INVALID,163.624,VALID,0,VALID,25.5921,VALID,41,VALID,0,
2011-08-22, 01:37:04,VALID,1004.27,VALID,0,INVALID,163.632,VALID,0,VALID,25.5513,VALID,46,VALID,0,
2011-08-22, 01:38:04,VALID,1004.28,VALID,0,INVALID,163.632,VALID,0,VALID,25.5513,VALID,30,VALID,0,
2011-08-22, 01:39:04,VALID,1004.26,VALID,0,INVALID,163.601,VALID,0,VALID,25.5707,VALID,30,VALID,0,
2011-08-22, 01:40:04,VALID,1004.23,VALID,0,INVALID,163.639,VALID,0,VALID,25.5727,VALID,29,VALID,0,
2011-08-22, 01:41:04,VALID,1004.28,VALID,0,INVALID,163.617,VALID,0,VALID,25.5513,VALID,45,VALID,0,
2011-08-22, 01:42:04,VALID,1004.24,VALID,0,INVALID,163.624,VALID,0,VALID,25.5746,VALID,31,VALID,0,
2011-08-22, 01:43:04,VALID,1004.24,VALID,0,INVALID,163.632,VALID,0,VALID,25.5318,VALID,74,VALID,0,
2011-08-22, 01:44:04,VALID,1004.24,VALID,0,INVALID,163.647,VALID,0,VALID,25.5707,VALID,18,VALID,0,
2011-08-22, 01:45:04,VALID,1004.26,VALID,0,INVALID,163.647,VALID,0,VALID,25.5513,VALID,50,VALID,0,
2011-08-22, 01:46:04,VALID,1004.28,VALID,0,INVALID,163.685,VALID,0,VALID,25.5707,VALID,12,VALID,0,
2011-08-22, 01:47:04,VALID,1004.28,VALID,0,INVALID,163.655,VALID,0,VALID,25.5707,VALID,72,VALID,0,
2011-08-22, 01:48:04,VALID,1004.27,VALID,0,INVALID,163.624,VALID,0.100563,VALID,25.5707,VALID,56,VALID,0,
2011-08-22, 01:49:04,VALID,1004.26,VALID,0,INVALID,163.639,VALID,0,VALID,25.5513,VALID,71,VALID,0,
2011-08-22, 01:50:04,VALID,1004.23,VALID,0,INVALID,163.662,VALID,0,VALID,25.5123,VALID,34,VALID,0,
2011-08-22, 01:51:04,VALID,1004.22,VALID,0,INVALID,163.624,VALID,0,VALID,25.5727,VALID,17,VALID,0,
2011-08-22, 01:52:04,VALID,1004.22,VALID,0,INVALID,163.639,VALID,0,VALID,25.5921,VALID,84,VALID,0,
2011-08-22, 01:53:04,VALID,1004.22,VALID,0,INVALID,163.601,VALID,0,VALID,25.5727,VALID,45,VALID,0,
2011-08-22, 01:54:04,VALID,1004.2,VALID,0,INVALID,163.639,VALID,0,VALID,25.5513,VALID,44,VALID,0,
2011-08-22, 01:55:04,VALID,1004.18,VALID,0,INVALID,163.639,VALID,0,VALID,25.5513,VALID,30,VALID,0,
2011-08-22, 01:56:04,VALID,1004.14,VALID,0,INVALID,163.647,VALID,0,VALID,25.5532,VALID,88,VALID,0,
2011-08-22, 01:57:04,VALID,1004.16,VALID,0,INVALID,163.639,VALID,0,VALID,25.4928,VALID,35,VALID,0,
2011-08-22, 01:58:04,VALID,1004.13,VALID,0,INVALID,163.609,VALID,0,VALID,25.5123,VALID,28,VALID,0,
2011-08-22, 01:59:04,VALID,1004.13,VALID,0,INVALID,163.655,VALID,0,VALID,25.5123,VALID,61,VALID,0,
2011-08-22, 02:00:04,VALID,1004.11,VALID,0,INVALID,163.639,VALID,0.100563,VALID,25.5318,VALID,47,VALID,0,
2011-08-22, 02:01:04,VALID,1004.09,VALID,0,INVALID,163.632,VALID,0.100563,VALID,25.5707,VALID,36,VALID,0,
2011-08-22, 02:02:04,VALID,1004.05,VALID,0,INVALID,163.639,VALID,0,VALID,25.5921,VALID,31,VALID,0,
2011-08-22, 02:03:04,VALID,1004.05,VALID,0,INVALID,163.632,VALID,0.100563,VALID,25.5727,VALID,31,VALID,0,
2011-08-22, 02:04:04,VALID,1004.07,VALID,0,INVALID,163.632,VALID,0,VALID,25.5318,VALID,65,VALID,0,
2011-08-22, 02:05:04,VALID,1004.06,VALID,0,INVALID,163.632,VALID,0,VALID,25.5318,VALID,15,VALID,0,
2011-08-22, 02:06:04,VALID,1004.05,VALID,0,INVALID,163.632,VALID,0,VALID,25.5318,VALID,30,VALID,0,
2011-08-22, 02:07:04,VALID,1004.07,VALID,0,INVALID,163.624,VALID,0,VALID,25.5123,VALID,34,VALID,0,
2011-08-22, 02:08:04,VALID,1004.09,VALID,0,INVALID,163.632,VALID,0,VALID,25.5123,VALID,25,VALID,0,
2011-08-22, 02:09:04,VALID,1004.1,VALID,0,INVALID,163.647,VALID,0,VALID,25.5142,VALID,43,VALID,0,
2011-08-22, 02:10:04,VALID,1004.1,VALID,0,INVALID,163.624,VALID,0,VALID,25.4948,VALID,85,VALID,0,
2011-08-22, 02:11:04,VALID,1004.1,VALID,0,INVALID,163.647,VALID,0,VALID,25.4753,VALID,56,VALID,0,
2011-08-22, 02:12:04,VALID,1004.1,VALID,0,INVALID,163.639,VALID,0,VALID,25.4734,VALID,68,VALID,0,
2011-08-22, 02:13:04,VALID,1004.09,VALID,0,INVALID,163.678,VALID,0,VALID,25.4539,VALID,3,VALID,0,
2011-08-22, 02:14:04,VALID,1004.1,VALID,0,INVALID,163.647,VALID,0,VALID,25.4539,VALID,72,VALID,0,
2011-08-22, 02:15:04,VALID,1004.08,VALID,0,INVALID,163.647,VALID,0,VALID,25.4149,VALID,74,VALID,0,
2011-08-22, 02:16:04,VALID,1004.06,VALID,0,INVALID,163.632,VALID,0,VALID,25.4149,VALID,38,VALID,0,
2011-08-22, 02:17:04,VALID,1004.07,VALID,0,INVALID,163.647,VALID,0,VALID,25.376,VALID,55,VALID,0,
2011-08-22, 02:18:04,VALID,1004.08,VALID,0,INVALID,163.639,VALID,0,VALID,25.3565,VALID,68,VALID,0,
2011-08-22, 02:19:04,VALID,1004.08,VALID,0,INVALID,163.655,VALID,0,VALID,25.3584,VALID,68,VALID,0,
2011-08-22, 02:20:04,VALID,1004.11,VALID,0,INVALID,163.67,VALID,0,VALID,25.3157,VALID,15,VALID,0,
2011-08-22, 02:21:04,VALID,1004.13,VALID,0,INVALID,163.655,VALID,0,VALID,25.337,VALID,96,VALID,0,
2011-08-22, 02:22:04,VALID,1004.1,VALID,0,INVALID,163.639,VALID,0,VALID,25.2981,VALID,78,VALID,0,
2011-08-22, 02:23:04,VALID,1004.11,VALID,0,INVALID,163.67,VALID,0,VALID,25.3,VALID,71,VALID,0,
2011-08-22, 02:24:04,VALID,1004.12,VALID,0,INVALID,163.647,VALID,0,VALID,25.2592,VALID,29,VALID,0,
2011-08-22, 02:25:04,VALID,1004.11,VALID,0,INVALID,163.67,VALID,0,VALID,25.2397,VALID,36,VALID,0,
2011-08-22, 02:26:04,VALID,1004.1,VALID,0,INVALID,163.662,VALID,0,VALID,25.2397,VALID,36,VALID,0,
2011-08-22, 02:27:04,VALID,1004.11,VALID,0,INVALID,163.662,VALID,0,VALID,25.2806,VALID,87,VALID,0,
2011-08-22, 02:28:04,VALID,1004.06,VALID,0,INVALID,163.647,VALID,0.100563,VALID,25.2592,VALID,50,VALID,0,
2011-08-22, 02:29:04,VALID,1004.08,VALID,0,INVALID,163.701,VALID,0,VALID,25.2786,VALID,49,VALID,0,
2011-08-22, 02:30:04,VALID,1004.05,VALID,0,INVALID,163.678,VALID,0,VALID,25.3,VALID,79,VALID,0,
2011-08-22, 02:31:04,VALID,1004.05,VALID,0,INVALID,163.655,VALID,0.100563,VALID,25.3195,VALID,96,VALID,0,
2011-08-22, 02:32:04,VALID,1004.02,VALID,0,INVALID,163.639,VALID,0.100563,VALID,25.3176,VALID,95,VALID,0,
2011-08-22, 02:33:04,VALID,1004.02,VALID,0,INVALID,163.685,VALID,0,VALID,25.2981,VALID,95,VALID,0,
2011-08-22, 02:34:04,VALID,1003.96,VALID,0,INVALID,163.655,VALID,0,VALID,25.3195,VALID,60,VALID,0,
2011-08-22, 02:35:04,VALID,1003.97,VALID,0,INVALID,163.655,VALID,0.100563,VALID,25.2767,VALID,60,VALID,0,
2011-08-22, 02:36:04,VALID,1003.94,VALID,0,INVALID,163.655,VALID,0,VALID,25.3,VALID,61,VALID,0,
2011-08-22, 02:37:04,VALID,1003.94,VALID,0,INVALID,163.662,VALID,0,VALID,25.2592,VALID,61,VALID,0,
2011-08-22, 02:38:04,VALID,1003.93,VALID,0,INVALID,163.678,VALID,0.100563,VALID,25.2397,VALID,61,VALID,0,
2011-08-22, 02:39:04,VALID,1003.88,VALID,0,INVALID,163.662,VALID,0.100563,VALID,25.2202,VALID,61,VALID,0,
2011-08-22, 02:40:04,VALID,1003.88,VALID,0,INVALID,163.655,VALID,0,VALID,25.2202,VALID,23,VALID,0,
2011-08-22, 02:41:04,VALID,1003.87,VALID,0,INVALID,163.662,VALID,0,VALID,25.2806,VALID,30,VALID,0,
2011-08-22, 02:42:04,VALID,1003.87,VALID,0,INVALID,163.655,VALID,0.100563,VALID,25.3176,VALID,21,VALID,0,
2011-08-22, 02:43:04,VALID,1003.83,VALID,0,INVALID,163.639,VALID,0,VALID,25.3176,VALID,48,VALID,0,
2011-08-22, 02:44:04,VALID,1003.79,VALID,0,INVALID,163.655,VALID,0,VALID,25.3565,VALID,25,VALID,0,
2011-08-22, 02:45:04,VALID,1003.76,VALID,0,INVALID,163.647,VALID,0.100563,VALID,25.337,VALID,25,VALID,0,
2011-08-22, 02:46:04,VALID,1003.75,VALID,0,INVALID,163.67,VALID,0,VALID,25.337,VALID,109,VALID,0,
2011-08-22, 02:47:04,VALID,1003.73,VALID,0,INVALID,163.647,VALID,0,VALID,25.337,VALID,22,VALID,0,
2011-08-22, 02:48:04,VALID,1003.73,VALID,0,INVALID,163.647,VALID,0.100563,VALID,25.3157,VALID,28,VALID,0,
2011-08-22, 02:49:04,VALID,1003.72,VALID,0,INVALID,163.639,VALID,0,VALID,25.3176,VALID,28,VALID,0,
2011-08-22, 02:50:04,VALID,1003.74,VALID,0,INVALID,163.67,VALID,0,VALID,25.3195,VALID,28,VALID,0,
2011-08-22, 02:51:04,VALID,1003.68,VALID,0,INVALID,163.632,VALID,0,VALID,25.2592,VALID,18,VALID,0,
2011-08-22, 02:52:04,VALID,1003.7,VALID,0,INVALID,163.655,VALID,0,VALID,25.3,VALID,22,VALID,0,
2011-08-22, 02:53:04,VALID,1003.69,VALID,0,INVALID,163.647,VALID,0,VALID,25.3,VALID,21,VALID,0,
2011-08-22, 02:54:04,VALID,1003.71,VALID,0,INVALID,163.685,VALID,0,VALID,25.2981,VALID,6,VALID,0,
2011-08-22, 02:55:04,VALID,1003.67,VALID,0,INVALID,163.632,VALID,0,VALID,25.3195,VALID,21,VALID,0,
2011-08-22, 02:56:04,VALID,1003.71,VALID,0,INVALID,163.662,VALID,0,VALID,25.2981,VALID,38,VALID,0,
2011-08-22, 02:57:04,VALID,1003.68,VALID,0,INVALID,163.67,VALID,0,VALID,25.3195,VALID,11,VALID,0,
2011-08-22, 02:58:04,VALID,1003.68,VALID,0,INVALID,163.701,VALID,0,VALID,25.2981,VALID,61,VALID,0,
2011-08-22, 02:59:04,VALID,1003.67,VALID,0,INVALID,163.655,VALID,0,VALID,25.3195,VALID,27,VALID,0,
2011-08-22, 03:00:04,VALID,1003.69,VALID,0,INVALID,163.678,VALID,0,VALID,25.2981,VALID,27,VALID,0,
2011-08-22, 03:01:04,VALID,1003.7,VALID,0,INVALID,163.678,VALID,0,VALID,25.2786,VALID,27,VALID,0,
2011-08-22, 03:02:04,VALID,1003.71,VALID,0,INVALID,163.647,VALID,0.100563,VALID,25.2572,VALID,52,VALID,0,
2011-08-22, 03:03:04,VALID,1003.71,VALID,0,INVALID,163.647,VALID,0,VALID,25.2592,VALID,45,VALID,0,
2011-08-22, 03:04:04,VALID,1003.74,VALID,0,INVALID,163.624,VALID,0,VALID,25.2592,VALID,45,VALID,0,
2011-08-22, 03:05:04,VALID,1003.73,VALID,0,INVALID,163.655,VALID,0,VALID,25.1988,VALID,45,VALID,0,
2011-08-22, 03:06:04,VALID,1003.73,VALID,0,INVALID,163.67,VALID,0,VALID,25.2007,VALID,93,VALID,0,
2011-08-22, 03:07:04,VALID,1003.74,VALID,0,INVALID,163.647,VALID,0,VALID,25.1599,VALID,96,VALID,0,
2011-08-22, 03:08:04,VALID,1003.73,VALID,0,INVALID,163.647,VALID,0,VALID,25.1618,VALID,96,VALID,0,
2011-08-22, 03:09:04,VALID,1003.74,VALID,0,INVALID,163.647,VALID,0,VALID,25.1813,VALID,49,VALID,0,
2011-08-22, 03:10:04,VALID,1003.75,VALID,0,INVALID,163.655,VALID,0,VALID,25.1637,VALID,60,VALID,0,
2011-08-22, 03:11:04,VALID,1003.72,VALID,0,INVALID,163.678,VALID,0.100563,VALID,25.1423,VALID,60,VALID,0,
2011-08-22, 03:12:04,VALID,1003.73,VALID,0,INVALID,163.67,VALID,0.100563,VALID,25.1015,VALID,60,VALID,0,
2011-08-22, 03:13:04,VALID,1003.72,VALID,0,INVALID,163.655,VALID,0,VALID,25.0839,VALID,49,VALID,0,
2011-08-22, 03:14:04,VALID,1003.73,VALID,0,INVALID,163.693,VALID,0.100563,VALID,25.1034,VALID,68,VALID,0,
2011-08-22, 03:15:04,VALID,1003.73,VALID,0,INVALID,163.67,VALID,0,VALID,25.1618,VALID,66,VALID,0,
2011-08-22, 03:16:04,VALID,1003.74,VALID,0,INVALID,163.655,VALID,0,VALID,25.1832,VALID,66,VALID,0,
2011-08-22, 03:17:04,VALID,1003.68,VALID,0,INVALID,163.685,VALID,0,VALID,25.1423,VALID,66,VALID,0,
2011-08-22, 03:18:04,VALID,1003.67,VALID,0,INVALID,163.639,VALID,0,VALID,25.1442,VALID,66,VALID,0,
2011-08-22, 03:19:04,VALID,1003.67,VALID,0,INVALID,163.678,VALID,0,VALID,25.1248,VALID,66,VALID,0,
2011-08-22, 03:20:04,VALID,1003.65,VALID,0,INVALID,163.67,VALID,0.100563,VALID,25.1229,VALID,66,VALID,0,
2011-08-22, 03:21:04,VALID,1003.61,VALID,0,INVALID,163.647,VALID,0,VALID,25.1034,VALID,62,VALID,0,
2011-08-22, 03:22:04,VALID,1003.65,VALID,0,INVALID,163.662,VALID,0.100563,VALID,25.1034,VALID,44,VALID,0,
2011-08-22, 03:23:04,VALID,1003.63,VALID,0,INVALID,163.678,VALID,0,VALID,25.1034,VALID,44,VALID,0,
2011-08-22, 03:24:04,VALID,1003.64,VALID,0,INVALID,163.655,VALID,0.100563,VALID,25.1034,VALID,44,VALID,0,
2011-08-22, 03:25:04,VALID,1003.67,VALID,0,INVALID,163.662,VALID,0.100563,VALID,25.1034,VALID,44,VALID,0,
2011-08-22, 03:26:04,VALID,1003.62,VALID,0,INVALID,163.662,VALID,0.100563,VALID,25.1053,VALID,44,VALID,0,
2011-08-22, 03:27:04,VALID,1003.64,VALID,0,INVALID,163.67,VALID,0,VALID,25.0431,VALID,44,VALID,0,
2011-08-22, 03:28:04,VALID,1003.65,VALID,0,INVALID,163.678,VALID,0,VALID,25.0255,VALID,44,VALID,0,
2011-08-22, 03:29:04,VALID,1003.64,VALID,0,INVALID,163.67,VALID,0,VALID,25.006,VALID,44,VALID,0,
2011-08-22, 03:30:04,VALID,1003.61,VALID,0,INVALID,163.678,VALID,0,VALID,24.9671,VALID,44,VALID,0,
2011-08-22, 03:31:04,VALID,1003.62,VALID,0,INVALID,163.67,VALID,0,VALID,24.9476,VALID,44,VALID,0,
2011-08-22, 03:32:04,VALID,1003.61,VALID,0,INVALID,163.685,VALID,0,VALID,24.9476,VALID,44,VALID,0,
2011-08-22, 03:33:04,VALID,1003.58,VALID,0,INVALID,163.678,VALID,0,VALID,24.8892,VALID,209,VALID,0,
2011-08-22, 03:34:04,VALID,1003.56,VALID,0,INVALID,163.678,VALID,0,VALID,24.9476,VALID,217,VALID,0,
2011-08-22, 03:35:04,VALID,1003.57,VALID,0,INVALID,163.678,VALID,0.100563,VALID,24.9476,VALID,217,VALID,0,
2011-08-22, 03:36:04,VALID,1003.54,VALID,0,INVALID,163.67,VALID,0,VALID,24.9282,VALID,208,VALID,0,
2011-08-22, 03:37:04,VALID,1003.53,VALID,0,INVALID,163.655,VALID,0,VALID,24.9087,VALID,208,VALID,0,
2011-08-22, 03:38:04,VALID,1003.52,VALID,0,INVALID,163.67,VALID,0,VALID,24.8697,VALID,208,VALID,0,
2011-08-22, 03:39:04,VALID,1003.53,VALID,0,INVALID,163.701,VALID,0,VALID,24.8503,VALID,208,VALID,0,
2011-08-22, 03:40:04,VALID,1003.53,VALID,0,INVALID,163.67,VALID,0,VALID,24.8327,VALID,208,VALID,0,
2011-08-22, 03:41:04,VALID,1003.58,VALID,0,INVALID,163.67,VALID,0,VALID,24.7724,VALID,208,VALID,0,
2011-08-22, 03:42:04,VALID,1003.58,VALID,0,INVALID,163.701,VALID,0,VALID,24.7529,VALID,208,VALID,0,
2011-08-22, 03:43:04,VALID,1003.58,VALID,0,INVALID,163.67,VALID,0,VALID,24.714,VALID,208,VALID,0,
2011-08-22, 03:44:04,VALID,1003.59,VALID,0,INVALID,163.716,VALID,0.100563,VALID,24.675,VALID,208,VALID,0,
2011-08-22, 03:45:04,VALID,1003.59,VALID,0,INVALID,163.716,VALID,0.100563,VALID,24.6556,VALID,204,VALID,0,
2011-08-22, 03:46:04,VALID,1003.6,VALID,0,INVALID,163.701,VALID,0,VALID,24.6185,VALID,204,VALID,0,
2011-08-22, 03:47:04,VALID,1003.61,VALID,0,INVALID,163.723,VALID,0,VALID,24.5777,VALID,204,VALID,0,
2011-08-22, 03:48:04,VALID,1003.64,VALID,0,INVALID,163.701,VALID,0,VALID,24.5406,VALID,64,VALID,0,
2011-08-22, 03:49:04,VALID,1003.65,VALID,0,INVALID,163.701,VALID,0,VALID,24.4025,VALID,28,VALID,0,
2011-08-22, 03:50:04,VALID,1003.67,VALID,0,INVALID,163.731,VALID,0.100563,VALID,24.3441,VALID,28,VALID,0,
2011-08-22, 03:51:04,VALID,1003.66,VALID,0,INVALID,163.723,VALID,0,VALID,24.3052,VALID,28,VALID,0,
2011-08-22, 03:52:04,VALID,1003.67,VALID,0,INVALID,163.739,VALID,0.100563,VALID,24.2857,VALID,28,VALID,0,
2011-08-22, 03:53:04,VALID,1003.69,VALID,0,INVALID,163.723,VALID,0,VALID,24.2449,VALID,28,VALID,0,
2011-08-22, 03:54:04,VALID,1003.68,VALID,0,INVALID,163.754,VALID,0.100563,VALID,24.2273,VALID,28,VALID,0,
2011-08-22, 03:55:04,VALID,1003.72,VALID,0,INVALID,163.693,VALID,0,VALID,24.1865,VALID,28,VALID,0,